Time,TemperatureF,DewpointF,PressureIn,WindDirection,WindDirectionDegrees,WindSpeedMPH,WindSpeedGustMPH,Humidity,HourlyPrecipIn,Conditions,Clouds,dailyrainin,SolarRadiationWatts/m^2,SoftwareType,DateUTC
2013-08-17 00:01:00,57.9,56.2,30.27,SW,233,0.0,0.0,94,0.00,,,0.00,0,Wunderground v.1.15,2013-08-17 04:01:00,
2013-08-17 00:02:00,57.9,56.2,30.27,SW,233,0.0,0.0,94,0.00,,,0.00,0,Wunderground v.1.15,2013-08-17 04:02:00,
2013-08-17 00:03:00,57.8,56.1,30.27,SW,230,0.0,0.0,94,0.00,,,0.00,0,Wunderground v.1.15,2013-08-17 04:03:00,
2013-08-17 00:05:00,57.8,56.1,30.27,SW,233,0.0,0.0,94,0.00,,,0.00,0,Wunderground v.1.15,2013-08-17 04:05:00,
2013-08-17 00:11:00,57.6,56.2,30.27,SW,231,0.0,0.0,95,0.00,,,0.00,0,Wunderground v.1.15,2013-08-17 04:11:00,
2013-08-17 00:14:00,57.5,56.1,30.28,SW,234,0.0,0.0,95,0.00,,,0.00,0,Wunderground v.1.15,2013-08-17 04:14:00,
2013-08-17 00:19:00,57.4,56.0,30.28,SW,233,0.0,0.0,95,0.00,,,0.00,0,Wunderground v.1.15,2013-08-17 04:19:00,
2013-08-17 00:24:00,57.3,55.9,30.28,SW,232,0.0,1.0,95,0.00,,,0.00,0,Wunderground v.1.15,2013-08-17 04:24:00,
2013-08-17 00:29:00,57.1,55.7,30.28,SW,231,1.0,2.0,95,0.00,,,0.00,0,Wunderground v.1.15,2013-08-17 04:29:00,
2013-08-17 00:35:00,57.0,55.6,30.29,SW,232,2.0,2.0,95,0.00,,,0.00,0,Wunderground v.1.15,2013-08-17 04:35:00,
2013-08-17 00:40:00,56.9,55.5,30.29,SW,231,1.0,1.0,95,0.00,,,0.00,0,Wunderground v.1.15,2013-08-17 04:40:00,
2013-08-17 00:45:00,56.7,55.3,30.29,SW,235,1.0,1.0,95,0.00,,,0.00,0,Wunderground v.1.15,2013-08-17 04:45:00,
2013-08-17 00:51:00,56.4,55.0,30.29,SW,231,0.0,0.0,95,0.00,,,0.00,0,Wunderground v.1.15,2013-08-17 04:51:00,
2013-08-17 00:56:00,56.3,55.2,30.29,SW,232,0.0,1.0,96,0.00,,,0.00,0,Wunderground v.1.15,2013-08-17 04:56:00,
2013-08-17 01:02:00,56.2,55.1,30.29,SW,234,0.0,0.0,96,0.00,,,0.00,0,Wunderground v.1.15,2013-08-17 05:02:00,
2013-08-17 01:07:00,56.2,55.1,30.29,SW,234,0.0,1.0,96,0.00,,,0.00,0,Wunderground v.1.15,2013-08-17 05:07:00,
2013-08-17 01:13:00,56.1,55.0,30.29,SW,232,0.0,0.0,96,0.00,,,0.00,0,Wunderground v.1.15,2013-08-17 05:13:00,
2013-08-17 01:18:00,56.1,55.0,30.29,SW,234,0.0,0.0,96,0.00,,,0.00,0,Wunderground v.1.15,2013-08-17 05:18:00,
2013-08-17 01:23:00,56.0,54.9,30.30,SW,235,0.0,0.0,96,0.00,,,0.00,0,Wunderground v.1.15,2013-08-17 05:23:00,
2013-08-17 01:29:00,55.9,54.8,30.30,SW,235,0.0,0.0,96,0.00,,,0.00,0,Wunderground v.1.15,2013-08-17 05:29:00,
2013-08-17 01:34:00,55.9,54.8,30.30,SW,232,0.0,0.0,96,0.00,,,0.00,0,Wunderground v.1.15,2013-08-17 05:34:00,
2013-08-17 01:39:00,55.6,54.5,30.30,SW,234,0.0,0.0,96,0.00,,,0.00,0,Wunderground v.1.15,2013-08-17 05:39:00,
2013-08-17 01:45:00,55.4,54.3,30.30,SW,234,0.0,2.0,96,0.00,,,0.00,0,Wunderground v.1.15,2013-08-17 05:45:00,
2013-08-17 01:50:00,55.2,54.1,30.30,SW,235,0.0,0.0,96,0.00,,,0.00,0,Wunderground v.1.15,2013-08-17 05:50:00,
2013-08-17 01:55:00,55.1,54.0,30.30,SW,234,1.0,2.0,96,0.00,,,0.00,0,Wunderground v.1.15,2013-08-17 05:55:00,
2013-08-17 02:00:00,55.0,53.9,30.30,SW,232,1.0,2.0,96,0.00,,,0.00,0,Wunderground v.1.15,2013-08-17 06:00:00,
2013-08-17 02:06:00,55.0,54.2,30.30,WSW,243,2.0,3.0,97,0.00,,,0.00,0,Wunderground v.1.15,2013-08-17 06:06:00,
2013-08-17 02:11:00,54.9,54.1,30.30,WSW,248,1.0,2.0,97,0.00,,,0.00,0,Wunderground v.1.15,2013-08-17 06:11:00,
2013-08-17 02:16:00,54.8,54.0,30.30,WSW,244,0.0,2.0,97,0.00,,,0.00,0,Wunderground v.1.15,2013-08-17 06:16:00,
2013-08-17 02:21:00,54.6,53.5,30.30,WSW,247,0.0,0.0,96,0.00,,,0.00,0,Wunderground v.1.15,2013-08-17 06:21:00,
2013-08-17 02:27:00,54.5,53.7,30.30,WSW,247,0.0,0.0,97,0.00,,,0.00,0,Wunderground v.1.15,2013-08-17 06:27:00,
2013-08-17 02:32:00,54.5,53.7,30.30,WSW,245,0.0,0.0,97,0.00,,,0.00,0,Wunderground v.1.15,2013-08-17 06:32:00,
2013-08-17 02:37:00,54.5,53.7,30.30,WSW,244,0.0,0.0,97,0.00,,,0.00,0,Wunderground v.1.15,2013-08-17 06:37:00,
2013-08-17 02:43:00,54.5,53.7,30.30,WSW,246,0.0,1.0,97,0.00,,,0.00,0,Wunderground v.1.15,2013-08-17 06:43:00,
2013-08-17 02:48:00,54.3,53.5,30.30,WSW,246,0.0,1.0,97,0.00,,,0.00,0,Wunderground v.1.15,2013-08-17 06:48:00,
2013-08-17 02:53:00,54.0,53.2,30.30,WSW,247,0.0,0.0,97,0.00,,,0.00,0,Wunderground v.1.15,2013-08-17 06:53:00,
2013-08-17 02:59:00,53.8,53.0,30.30,WSW,244,0.0,0.0,97,0.00,,,0.00,0,Wunderground v.1.15,2013-08-17 06:59:00,
2013-08-17 03:04:00,53.6,52.8,30.30,WSW,246,0.0,2.0,97,0.00,,,0.00,0,Wunderground v.1.15,2013-08-17 07:04:00,
2013-08-17 03:10:00,53.5,52.7,30.30,WSW,247,1.0,2.0,97,0.00,,,0.00,0,Wunderground v.1.15,2013-08-17 07:10:00,
2013-08-17 03:15:00,53.5,52.7,30.30,WSW,245,2.0,3.0,97,0.00,,,0.00,0,Wunderground v.1.15,2013-08-17 07:15:00,
2013-08-17 03:21:00,53.5,52.9,30.30,WSW,246,1.0,1.0,98,0.00,,,0.00,0,Wunderground v.1.15,2013-08-17 07:21:00,
2013-08-17 03:26:00,53.5,52.9,30.30,WSW,244,0.0,1.0,98,0.00,,,0.00,0,Wunderground v.1.15,2013-08-17 07:26:00,
2013-08-17 03:31:00,53.6,53.0,30.30,WSW,246,0.0,0.0,98,0.00,,,0.00,0,Wunderground v.1.15,2013-08-17 07:31:00,
2013-08-17 03:37:00,53.5,52.9,30.30,WSW,246,0.0,0.0,98,0.00,,,0.00,0,Wunderground v.1.15,2013-08-17 07:37:00,
2013-08-17 03:42:00,53.4,52.8,30.30,WSW,244,0.0,0.0,98,0.00,,,0.00,0,Wunderground v.1.15,2013-08-17 07:42:00,
2013-08-17 03:47:00,53.4,52.8,30.30,WSW,249,0.0,0.0,98,0.00,,,0.00,0,Wunderground v.1.15,2013-08-17 07:47:00,
2013-08-17 03:52:00,53.4,52.8,30.30,WSW,245,1.0,2.0,98,0.00,,,0.00,0,Wunderground v.1.15,2013-08-17 07:52:00,
2013-08-17 03:58:00,53.2,52.7,30.30,WSW,244,1.0,2.0,98,0.00,,,0.00,0,Wunderground v.1.15,2013-08-17 07:58:00,
2013-08-17 04:04:00,52.9,52.4,30.30,WSW,248,0.0,0.0,98,0.00,,,0.00,0,Wunderground v.1.15,2013-08-17 08:04:00,
2013-08-17 04:09:00,52.7,51.9,30.30,WSW,248,0.0,1.0,97,0.00,,,0.00,0,Wunderground v.1.15,2013-08-17 08:09:00,
2013-08-17 04:14:00,52.6,52.1,30.31,WSW,245,1.0,2.0,98,0.00,,,0.00,0,Wunderground v.1.15,2013-08-17 08:14:00,
2013-08-17 04:20:00,52.5,52.0,30.31,WSW,244,1.0,1.0,98,0.00,,,0.00,0,Wunderground v.1.15,2013-08-17 08:20:00,
2013-08-17 04:25:00,52.6,52.1,30.31,WSW,245,1.0,1.0,98,0.00,,,0.00,0,Wunderground v.1.15,2013-08-17 08:25:00,
2013-08-17 04:30:00,52.7,52.2,30.31,WSW,244,0.0,0.0,98,0.00,,,0.00,0,Wunderground v.1.15,2013-08-17 08:30:00,
2013-08-17 04:36:00,52.7,52.4,30.31,WSW,248,1.0,2.0,99,0.00,,,0.00,0,Wunderground v.1.15,2013-08-17 08:36:00,
2013-08-17 04:41:00,52.8,52.5,30.31,WSW,244,1.0,1.0,99,0.00,,,0.00,0,Wunderground v.1.15,2013-08-17 08:41:00,
2013-08-17 04:46:00,52.8,52.5,30.31,WSW,247,0.0,1.0,99,0.00,,,0.00,0,Wunderground v.1.15,2013-08-17 08:46:00,
2013-08-17 04:52:00,52.6,52.1,30.31,WSW,247,0.0,0.0,98,0.00,,,0.00,0,Wunderground v.1.15,2013-08-17 08:52:00,
2013-08-17 04:57:00,52.4,51.9,30.31,WSW,246,0.0,0.0,98,0.00,,,0.00,0,Wunderground v.1.15,2013-08-17 08:57:00,
2013-08-17 05:03:00,52.2,51.7,30.32,WSW,246,0.0,0.0,98,0.00,,,0.00,0,Wunderground v.1.15,2013-08-17 09:03:00,
2013-08-17 05:08:00,52.1,51.6,30.32,WSW,245,0.0,0.0,98,0.00,,,0.00,0,Wunderground v.1.15,2013-08-17 09:08:00,
2013-08-17 05:13:00,52.1,51.6,30.32,WSW,246,0.0,2.0,98,0.00,,,0.00,0,Wunderground v.1.15,2013-08-17 09:13:00,
2013-08-17 05:19:00,52.2,51.9,30.32,WSW,244,1.0,2.0,99,0.00,,,0.00,0,Wunderground v.1.15,2013-08-17 09:19:00,
2013-08-17 05:24:00,52.2,51.9,30.32,WSW,248,0.0,1.0,99,0.00,,,0.00,0,Wunderground v.1.15,2013-08-17 09:24:00,
2013-08-17 05:29:00,52.1,51.6,30.32,WSW,244,0.0,1.0,98,0.00,,,0.00,0,Wunderground v.1.15,2013-08-17 09:29:00,
2013-08-17 05:35:00,51.9,51.4,30.32,WSW,246,0.0,0.0,98,0.00,,,0.00,0,Wunderground v.1.15,2013-08-17 09:35:00,
2013-08-17 05:40:00,51.7,51.2,30.32,WSW,244,0.0,2.0,98,0.00,,,0.00,0,Wunderground v.1.15,2013-08-17 09:40:00,
2013-08-17 05:45:00,51.7,51.2,30.32,WSW,244,0.0,2.0,98,0.00,,,0.00,0,Wunderground v.1.15,2013-08-17 09:45:00,
2013-08-17 05:51:00,51.7,51.4,30.32,WSW,247,0.0,2.0,99,0.00,,,0.00,0,Wunderground v.1.15,2013-08-17 09:51:00,
2013-08-17 05:56:00,51.7,51.4,30.32,WSW,246,1.0,2.0,99,0.00,,,0.00,0,Wunderground v.1.15,2013-08-17 09:56:00,
2013-08-17 06:02:00,51.6,51.3,30.32,WSW,244,1.0,1.0,99,0.00,,,0.00,0,Wunderground v.1.15,2013-08-17 10:02:00,
2013-08-17 06:07:00,51.5,51.0,30.32,WSW,244,0.0,1.0,98,0.00,,,0.00,0,Wunderground v.1.15,2013-08-17 10:07:00,
2013-08-17 06:12:00,51.3,50.8,30.32,WSW,245,0.0,0.0,98,0.00,,,0.00,0,Wunderground v.1.15,2013-08-17 10:12:00,
2013-08-17 06:18:00,51.2,50.7,30.32,WSW,245,0.0,1.0,98,0.00,,,0.00,0,Wunderground v.1.15,2013-08-17 10:18:00,
2013-08-17 06:23:00,51.2,50.7,30.33,WSW,244,0.0,1.0,98,0.00,,,0.00,0,Wunderground v.1.15,2013-08-17 10:23:00,
2013-08-17 06:28:00,51.1,50.8,30.33,WSW,246,0.0,1.0,99,0.00,,,0.00,0,Wunderground v.1.15,2013-08-17 10:28:00,
2013-08-17 06:34:00,51.2,50.9,30.34,WSW,245,1.0,3.0,99,0.00,,,0.00,0,Wunderground v.1.15,2013-08-17 10:34:00,
2013-08-17 06:39:00,51.2,50.9,30.34,WSW,258,2.0,4.0,99,0.00,,,0.00,7,Wunderground v.1.15,2013-08-17 10:39:00,
2013-08-17 06:44:00,51.2,50.9,30.34,West,265,2.0,3.0,99,0.00,,,0.00,11,Wunderground v.1.15,2013-08-17 10:44:00,
2013-08-17 06:50:00,51.2,50.9,30.34,West,264,1.0,1.0,99,0.00,,,0.00,12,Wunderground v.1.15,2013-08-17 10:50:00,
2013-08-17 06:55:00,51.1,50.8,30.34,West,264,0.0,1.0,99,0.00,,,0.00,14,Wunderground v.1.15,2013-08-17 10:55:00,
2013-08-17 07:00:00,51.0,50.7,30.34,West,265,0.0,0.0,99,0.00,,,0.00,18,Wunderground v.1.15,2013-08-17 11:00:00,
2013-08-17 07:06:00,51.0,50.7,30.34,West,265,0.0,0.0,99,0.00,,,0.00,21,Wunderground v.1.15,2013-08-17 11:06:00,
2013-08-17 07:12:00,51.2,50.9,30.34,West,265,0.0,0.0,99,0.00,,,0.00,23,Wunderground v.1.15,2013-08-17 11:12:00,
2013-08-17 07:17:00,51.2,50.9,30.34,North,360,0.0,0.0,99,0.00,,,0.00,26,Wunderground v.1.15,2013-08-17 11:17:00,
2013-08-17 07:22:00,51.3,51.0,30.35,West,264,0.0,0.0,99,0.00,,,0.00,33,Wunderground v.1.15,2013-08-17 11:22:00,
2013-08-17 07:28:00,51.4,51.1,30.35,West,263,0.0,0.0,99,0.00,,,0.00,28,Wunderground v.1.15,2013-08-17 11:28:00,
2013-08-17 07:33:00,51.6,51.3,30.35,West,264,0.0,1.0,99,0.00,,,0.00,32,Wunderground v.1.15,2013-08-17 11:33:00,
2013-08-17 07:38:00,51.9,51.9,30.35,West,263,0.0,1.0,100,0.00,,,0.00,58,Wunderground v.1.15,2013-08-17 11:38:00,
2013-08-17 07:44:00,52.3,52.3,30.35,West,266,0.0,0.0,100,0.00,,,0.00,76,Wunderground v.1.15,2013-08-17 11:44:00,
2013-08-17 07:49:00,52.6,52.6,30.35,West,266,0.0,0.0,100,0.00,,,0.00,93,Wunderground v.1.15,2013-08-17 11:49:00,
2013-08-17 07:54:00,53.0,53.0,30.35,North,360,0.0,0.0,100,0.00,,,0.00,97,Wunderground v.1.15,2013-08-17 11:54:00,
2013-08-17 08:00:00,53.6,53.6,30.35,North,360,0.0,0.0,100,0.00,,,0.00,86,Wunderground v.1.15,2013-08-17 12:00:00,
2013-08-17 08:06:00,53.9,53.9,30.35,West,265,0.0,0.0,100,0.00,,,0.00,102,Wunderground v.1.15,2013-08-17 12:06:00,
2013-08-17 08:11:00,54.2,54.2,30.35,North,360,0.0,0.0,100,0.00,,,0.00,111,Wunderground v.1.15,2013-08-17 12:11:00,
2013-08-17 08:16:00,54.4,54.4,30.35,West,264,0.0,0.0,100,0.00,,,0.00,100,Wunderground v.1.15,2013-08-17 12:16:00,
2013-08-17 08:22:00,54.5,54.5,30.36,West,265,0.0,0.0,100,0.00,,,0.00,156,Wunderground v.1.15,2013-08-17 12:22:00,
2013-08-17 08:27:00,54.7,54.7,30.36,West,265,0.0,0.0,100,0.00,,,0.00,148,Wunderground v.1.15,2013-08-17 12:27:00,
2013-08-17 08:32:00,54.9,54.9,30.36,West,265,0.0,0.0,100,0.00,,,0.00,160,Wunderground v.1.15,2013-08-17 12:32:00,
2013-08-17 08:37:00,55.2,55.2,30.36,West,264,0.0,0.0,100,0.00,,,0.00,171,Wunderground v.1.15,2013-08-17 12:37:00,
2013-08-17 08:43:00,55.6,55.6,30.36,West,267,0.0,0.0,100,0.00,,,0.00,178,Wunderground v.1.15,2013-08-17 12:43:00,
2013-08-17 08:48:00,55.7,55.7,30.36,North,360,0.0,0.0,100,0.00,,,0.00,207,Wunderground v.1.15,2013-08-17 12:48:00,
2013-08-17 08:53:00,55.9,55.9,30.36,North,360,0.0,1.0,100,0.00,,,0.00,364,Wunderground v.1.15,2013-08-17 12:53:00,
2013-08-17 08:59:00,55.9,55.6,30.36,West,262,0.0,1.0,99,0.00,,,0.00,142,Wunderground v.1.15,2013-08-17 12:59:00,
2013-08-17 09:05:00,56.0,55.7,30.36,North,360,0.0,0.0,99,0.00,,,0.00,197,Wunderground v.1.15,2013-08-17 13:05:00,
2013-08-17 09:10:00,56.3,56.0,30.36,West,263,0.0,0.0,99,0.00,,,0.00,236,Wunderground v.1.15,2013-08-17 13:10:00,
2013-08-17 09:16:00,56.8,56.5,30.35,West,265,0.0,0.0,99,0.00,,,0.00,388,Wunderground v.1.15,2013-08-17 13:16:00,
2013-08-17 09:21:00,57.2,56.9,30.35,North,360,0.0,0.0,99,0.00,,,0.00,471,Wunderground v.1.15,2013-08-17 13:21:00,
2013-08-17 09:26:00,57.8,57.5,30.35,West,266,0.0,0.0,99,0.00,,,0.00,501,Wunderground v.1.15,2013-08-17 13:26:00,
2013-08-17 09:32:00,59.1,58.5,30.35,West,264,0.0,0.0,98,0.00,,,0.00,506,Wunderground v.1.15,2013-08-17 13:32:00,
2013-08-17 09:37:00,60.0,58.9,30.35,SE,144,0.0,0.0,96,0.00,,,0.00,367,Wunderground v.1.15,2013-08-17 13:37:00,
2013-08-17 09:42:00,60.8,58.8,30.35,SE,143,0.0,0.0,93,0.00,,,0.00,515,Wunderground v.1.15,2013-08-17 13:42:00,
2013-08-17 09:47:00,61.5,58.8,30.35,SE,146,0.0,0.0,91,0.00,,,0.00,457,Wunderground v.1.15,2013-08-17 13:47:00,
2013-08-17 09:53:00,62.6,59.9,30.35,SE,132,0.0,0.0,91,0.00,,,0.00,563,Wunderground v.1.15,2013-08-17 13:53:00,
2013-08-17 09:58:00,63.3,59.7,30.35,ENE,77,0.0,3.0,88,0.00,,,0.00,631,Wunderground v.1.15,2013-08-17 13:58:00,
2013-08-17 10:04:00,64.2,59.6,30.35,East,88,1.0,1.0,85,0.00,,,0.00,633,Wunderground v.1.15,2013-08-17 14:04:00,
2013-08-17 10:10:00,65.0,60.0,30.35,NE,38,1.0,2.0,84,0.00,,,0.00,654,Wunderground v.1.15,2013-08-17 14:10:00,
2013-08-17 10:15:00,65.4,61.1,30.35,ENE,63,1.0,2.0,86,0.00,,,0.00,666,Wunderground v.1.15,2013-08-17 14:15:00,
2013-08-17 10:20:00,65.9,61.3,30.35,East,92,1.0,1.0,85,0.00,,,0.00,700,Wunderground v.1.15,2013-08-17 14:20:00,
2013-08-17 10:25:00,66.5,60.8,30.35,NNW,342,1.0,2.0,82,0.00,,,0.00,533,Wunderground v.1.15,2013-08-17 14:25:00,
2013-08-17 10:31:00,66.9,60.9,30.35,NE,46,1.0,3.0,81,0.00,,,0.00,540,Wunderground v.1.15,2013-08-17 14:31:00,
2013-08-17 10:36:00,67.2,61.2,30.35,NE,44,1.0,3.0,81,0.00,,,0.00,598,Wunderground v.1.15,2013-08-17 14:36:00,
2013-08-17 10:42:00,67.8,61.0,30.35,NNE,13,1.0,3.0,79,0.00,,,0.00,749,Wunderground v.1.15,2013-08-17 14:42:00,
2013-08-17 10:47:00,68.3,61.9,30.35,NNE,13,1.0,3.0,80,0.00,,,0.00,745,Wunderground v.1.15,2013-08-17 14:47:00,
2013-08-17 10:52:00,68.7,61.6,30.35,ENE,77,2.0,3.0,78,0.00,,,0.00,701,Wunderground v.1.15,2013-08-17 14:52:00,
2013-08-17 10:58:00,69.4,61.5,30.35,ENE,72,1.0,3.0,76,0.00,,,0.00,566,Wunderground v.1.15,2013-08-17 14:58:00,
2013-08-17 11:03:00,69.4,61.5,30.35,ENE,61,1.0,2.0,76,0.00,,,0.00,564,Wunderground v.1.15,2013-08-17 15:03:00,
2013-08-17 11:09:00,69.8,61.9,30.35,ESE,117,1.0,2.0,76,0.00,,,0.00,703,Wunderground v.1.15,2013-08-17 15:09:00,
2013-08-17 11:14:00,70.3,61.6,30.35,NE,53,1.0,2.0,74,0.00,,,0.00,728,Wunderground v.1.15,2013-08-17 15:14:00,
2013-08-17 11:19:00,70.7,61.6,30.34,ENE,76,1.0,2.0,73,0.00,,,0.00,779,Wunderground v.1.15,2013-08-17 15:19:00,
2013-08-17 11:25:00,71.1,63.1,30.34,ENE,78,2.0,4.0,76,0.00,,,0.00,714,Wunderground v.1.15,2013-08-17 15:25:00,
2013-08-17 11:30:00,71.3,62.2,30.34,ENE,63,4.0,7.0,73,0.00,,,0.00,747,Wunderground v.1.15,2013-08-17 15:30:00,
2013-08-17 11:36:00,71.7,62.2,30.34,ENE,71,5.0,8.0,72,0.00,,,0.00,738,Wunderground v.1.15,2013-08-17 15:36:00,
2013-08-17 11:41:00,71.8,61.1,30.34,East,95,5.0,5.0,69,0.00,,,0.00,800,Wunderground v.1.15,2013-08-17 15:41:00,
2013-08-17 11:46:00,72.2,61.0,30.34,NNE,26,4.0,5.0,68,0.00,,,0.00,775,Wunderground v.1.15,2013-08-17 15:46:00,
2013-08-17 11:51:00,72.6,63.1,30.34,ENE,74,6.0,9.0,72,0.00,,,0.00,802,Wunderground v.1.15,2013-08-17 15:51:00,
2013-08-17 11:57:00,73.2,62.0,30.33,ESE,109,6.0,9.0,68,0.00,,,0.00,812,Wunderground v.1.15,2013-08-17 15:57:00,
2013-08-17 12:03:00,73.7,62.9,30.33,NE,46,3.0,9.0,69,0.00,,,0.00,700,Wunderground v.1.15,2013-08-17 16:03:00,
2013-08-17 12:08:00,74.0,62.8,30.33,ENE,60,4.0,10.0,68,0.00,,,0.00,877,Wunderground v.1.15,2013-08-17 16:08:00,
2013-08-17 12:14:00,74.0,61.5,30.33,NNE,29,5.0,5.0,65,0.00,,,0.00,311,Wunderground v.1.15,2013-08-17 16:14:00,
2013-08-17 12:19:00,73.7,62.9,30.33,ENE,58,4.0,9.0,69,0.00,,,0.00,378,Wunderground v.1.15,2013-08-17 16:19:00,
2013-08-17 12:24:00,73.9,63.5,30.33,SSE,159,4.0,8.0,70,0.00,,,0.00,323,Wunderground v.1.15,2013-08-17 16:24:00,
2013-08-17 12:29:00,74.1,62.0,30.33,SE,142,4.0,8.0,66,0.00,,,0.00,870,Wunderground v.1.15,2013-08-17 16:29:00,
2013-08-17 12:35:00,74.4,63.1,30.33,SE,131,5.0,10.0,68,0.00,,,0.00,969,Wunderground v.1.15,2013-08-17 16:35:00,
2013-08-17 12:40:00,74.5,63.2,30.33,SE,146,6.0,8.0,68,0.00,,,0.00,888,Wunderground v.1.15,2013-08-17 16:40:00,
2013-08-17 12:46:00,74.8,62.2,30.33,SSE,158,4.0,8.0,65,0.00,,,0.00,788,Wunderground v.1.15,2013-08-17 16:46:00,
2013-08-17 12:51:00,74.3,61.8,30.32,ENE,69,2.0,3.0,65,0.00,,,0.00,367,Wunderground v.1.15,2013-08-17 16:51:00,
2013-08-17 12:56:00,74.3,63.9,30.32,ENE,65,2.0,7.0,70,0.00,,,0.00,432,Wunderground v.1.15,2013-08-17 16:56:00,
2013-08-17 13:02:00,74.7,63.4,30.32,ENE,67,4.0,7.0,68,0.00,,,0.00,482,Wunderground v.1.15,2013-08-17 17:02:00,
2013-08-17 13:08:00,74.7,61.7,30.32,NE,55,5.0,7.0,64,0.00,,,0.00,329,Wunderground v.1.15,2013-08-17 17:08:00,
2013-08-17 13:13:00,74.6,61.6,30.31,ENE,74,3.0,4.0,64,0.00,,,0.00,434,Wunderground v.1.15,2013-08-17 17:13:00,
2013-08-17 13:18:00,74.9,62.3,30.31,SE,139,1.0,4.0,65,0.00,,,0.00,540,Wunderground v.1.15,2013-08-17 17:18:00,
2013-08-17 13:24:00,75.6,63.4,30.31,ENE,64,2.0,7.0,66,0.00,,,0.00,763,Wunderground v.1.15,2013-08-17 17:24:00,
2013-08-17 13:29:00,75.8,61.8,30.31,SSE,166,3.0,7.0,62,0.00,,,0.00,663,Wunderground v.1.15,2013-08-17 17:29:00,
2013-08-17 13:34:00,76.0,62.9,30.31,East,92,4.0,8.0,64,0.00,,,0.00,339,Wunderground v.1.15,2013-08-17 17:34:00,
2013-08-17 13:39:00,75.7,63.5,30.31,SE,136,6.0,9.0,66,0.00,,,0.00,417,Wunderground v.1.15,2013-08-17 17:39:00,
2013-08-17 13:45:00,76.1,61.7,30.31,South,177,7.0,7.0,61,0.00,,,0.00,657,Wunderground v.1.15,2013-08-17 17:45:00,
2013-08-17 13:50:00,76.4,61.5,30.31,SE,142,5.0,5.0,60,0.00,,,0.00,367,Wunderground v.1.15,2013-08-17 17:50:00,
2013-08-17 13:56:00,76.6,63.5,30.31,SE,146,4.0,8.0,64,0.00,,,0.00,399,Wunderground v.1.15,2013-08-17 17:56:00,
2013-08-17 14:02:00,76.9,61.5,30.31,SE,133,4.0,4.0,59,0.00,,,0.00,763,Wunderground v.1.15,2013-08-17 18:02:00,
2013-08-17 14:07:00,77.2,63.2,30.31,ESE,103,4.0,6.0,62,0.00,,,0.00,369,Wunderground v.1.15,2013-08-17 18:07:00,
2013-08-17 14:12:00,77.1,62.6,30.31,East,96,3.0,4.0,61,0.00,,,0.00,401,Wunderground v.1.15,2013-08-17 18:12:00,
2013-08-17 14:17:00,77.0,63.0,30.31,South,175,3.0,4.0,62,0.00,,,0.00,703,Wunderground v.1.15,2013-08-17 18:17:00,
2013-08-17 14:23:00,77.0,62.0,30.31,East,99,3.0,11.0,60,0.00,,,0.00,422,Wunderground v.1.15,2013-08-17 18:23:00,
2013-08-17 14:28:00,76.6,62.6,30.30,SSE,167,4.0,11.0,62,0.00,,,0.00,652,Wunderground v.1.15,2013-08-17 18:28:00,
2013-08-17 14:34:00,76.8,62.3,30.30,ESE,106,4.0,5.0,61,0.00,,,0.00,647,Wunderground v.1.15,2013-08-17 18:34:00,
2013-08-17 14:39:00,76.9,63.3,30.30,South,169,2.0,6.0,63,0.00,,,0.00,608,Wunderground v.1.15,2013-08-17 18:39:00,
2013-08-17 14:44:00,77.0,61.1,30.30,East,82,4.0,9.0,58,0.00,,,0.00,684,Wunderground v.1.15,2013-08-17 18:44:00,
2013-08-17 14:50:00,76.7,62.7,30.30,ESE,103,3.0,5.0,62,0.00,,,0.00,698,Wunderground v.1.15,2013-08-17 18:50:00,
2013-08-17 14:55:00,77.0,61.6,30.30,ESE,105,4.0,8.0,59,0.00,,,0.00,649,Wunderground v.1.15,2013-08-17 18:55:00,
2013-08-17 15:00:00,77.0,62.0,30.30,East,95,6.0,6.0,60,0.00,,,0.00,425,Wunderground v.1.15,2013-08-17 19:00:00,
2013-08-17 15:06:00,77.4,63.4,30.30,ESE,105,6.0,10.0,62,0.00,,,0.00,531,Wunderground v.1.15,2013-08-17 19:06:00,
2013-08-17 15:11:00,77.5,61.1,30.30,ENE,70,4.0,5.0,57,0.00,,,0.00,364,Wunderground v.1.15,2013-08-17 19:11:00,
2013-08-17 15:17:00,77.6,62.6,30.29,East,101,3.0,6.0,60,0.00,,,0.00,413,Wunderground v.1.15,2013-08-17 19:17:00,
2013-08-17 15:22:00,77.7,61.3,30.29,ENE,76,4.0,5.0,57,0.00,,,0.00,494,Wunderground v.1.15,2013-08-17 19:22:00,
2013-08-17 15:28:00,78.0,62.5,30.29,East,92,3.0,6.0,59,0.00,,,0.00,464,Wunderground v.1.15,2013-08-17 19:28:00,
2013-08-17 15:33:00,78.2,62.2,30.29,SE,128,3.0,6.0,58,0.00,,,0.00,352,Wunderground v.1.15,2013-08-17 19:33:00,
2013-08-17 15:38:00,78.0,61.0,30.29,East,80,5.0,9.0,56,0.00,,,0.00,339,Wunderground v.1.15,2013-08-17 19:38:00,
2013-08-17 15:43:00,77.7,61.3,30.29,SSE,153,5.0,6.0,57,0.00,,,0.00,364,Wunderground v.1.15,2013-08-17 19:43:00,
2013-08-17 15:49:00,77.5,62.0,30.28,ESE,122,5.0,7.0,59,0.00,,,0.00,448,Wunderground v.1.15,2013-08-17 19:49:00,
2013-08-17 15:54:00,77.6,61.7,30.28,ENE,57,4.0,8.0,58,0.00,,,0.00,417,Wunderground v.1.15,2013-08-17 19:54:00,
2013-08-17 16:00:00,77.2,61.8,30.28,East,88,6.0,6.0,59,0.00,,,0.00,441,Wunderground v.1.15,2013-08-17 20:00:00,
2013-08-17 16:06:00,77.1,62.1,30.28,East,94,5.0,6.0,60,0.00,,,0.00,429,Wunderground v.1.15,2013-08-17 20:06:00,
2013-08-17 16:11:00,77.0,63.9,30.28,ESE,121,3.0,4.0,64,0.00,,,0.00,422,Wunderground v.1.15,2013-08-17 20:11:00,
2013-08-17 16:16:00,77.2,62.2,30.28,ESE,104,4.0,5.0,60,0.00,,,0.00,385,Wunderground v.1.15,2013-08-17 20:16:00,
2013-08-17 16:21:00,77.4,62.9,30.28,ENE,61,2.0,3.0,61,0.00,,,0.00,374,Wunderground v.1.15,2013-08-17 20:21:00,
2013-08-17 16:27:00,77.3,62.8,30.28,ESE,108,3.0,9.0,61,0.00,,,0.00,373,Wunderground v.1.15,2013-08-17 20:27:00,
2013-08-17 16:32:00,77.1,62.1,30.28,ENE,78,5.0,7.0,60,0.00,,,0.00,350,Wunderground v.1.15,2013-08-17 20:32:00,
2013-08-17 16:38:00,76.6,61.2,30.28,East,98,6.0,9.0,59,0.00,,,0.00,364,Wunderground v.1.15,2013-08-17 20:38:00,
2013-08-17 16:43:00,76.4,62.4,30.28,ENE,69,6.0,8.0,62,0.00,,,0.00,339,Wunderground v.1.15,2013-08-17 20:43:00,
2013-08-17 16:48:00,76.4,62.4,30.29,ENE,78,4.0,8.0,62,0.00,,,0.00,346,Wunderground v.1.15,2013-08-17 20:48:00,
2013-08-17 16:54:00,76.3,62.3,30.29,NE,51,4.0,7.0,62,0.00,,,0.00,352,Wunderground v.1.15,2013-08-17 20:54:00,
2013-08-17 16:59:00,76.4,63.3,30.28,ESE,121,4.0,7.0,64,0.00,,,0.00,359,Wunderground v.1.15,2013-08-17 20:59:00,
2013-08-17 17:05:00,76.8,62.8,30.28,East,92,4.0,5.0,62,0.00,,,0.00,383,Wunderground v.1.15,2013-08-17 21:05:00,
2013-08-17 17:10:00,77.1,64.4,30.29,ESE,118,3.0,3.0,65,0.00,,,0.00,260,Wunderground v.1.15,2013-08-17 21:10:00,
2013-08-17 17:15:00,77.1,62.1,30.29,ENE,57,2.0,7.0,60,0.00,,,0.00,230,Wunderground v.1.15,2013-08-17 21:15:00,
2013-08-17 17:21:00,76.6,62.1,30.29,ENE,74,3.0,4.0,61,0.00,,,0.00,211,Wunderground v.1.15,2013-08-17 21:21:00,
2013-08-17 17:26:00,76.5,62.0,30.29,East,100,4.0,10.0,61,0.00,,,0.00,213,Wunderground v.1.15,2013-08-17 21:26:00,
2013-08-17 17:32:00,76.4,62.4,30.29,East,79,5.0,6.0,62,0.00,,,0.00,214,Wunderground v.1.15,2013-08-17 21:32:00,
2013-08-17 17:37:00,76.1,63.0,30.29,ESE,110,4.0,6.0,64,0.00,,,0.00,192,Wunderground v.1.15,2013-08-17 21:37:00,
2013-08-17 17:42:00,75.9,62.4,30.29,East,98,3.0,5.0,63,0.00,,,0.00,171,Wunderground v.1.15,2013-08-17 21:42:00,
2013-08-17 17:47:00,75.8,62.8,30.29,SE,126,3.0,5.0,64,0.00,,,0.00,163,Wunderground v.1.15,2013-08-17 21:47:00,
2013-08-17 17:53:00,75.8,62.8,30.30,ESE,115,4.0,7.0,64,0.00,,,0.00,121,Wunderground v.1.15,2013-08-17 21:53:00,
2013-08-17 17:58:00,75.7,63.1,30.30,ESE,109,4.0,7.0,65,0.00,,,0.00,90,Wunderground v.1.15,2013-08-17 21:58:00,
2013-08-17 18:04:00,75.5,62.9,30.29,East,98,3.0,7.0,65,0.00,,,0.00,79,Wunderground v.1.15,2013-08-17 22:04:00,
2013-08-17 18:09:00,75.3,61.8,30.29,East,82,3.0,7.0,63,0.00,,,0.00,88,Wunderground v.1.15,2013-08-17 22:09:00,
2013-08-17 18:14:00,75.2,63.1,30.29,East,95,3.0,3.0,66,0.00,,,0.00,76,Wunderground v.1.15,2013-08-17 22:14:00,
2013-08-17 18:20:00,75.1,63.4,30.29,ESE,104,1.0,2.0,67,0.00,,,0.00,77,Wunderground v.1.15,2013-08-17 22:20:00,
2013-08-17 18:25:00,75.0,63.3,30.29,East,82,1.0,5.0,67,0.00,,,0.00,84,Wunderground v.1.15,2013-08-17 22:25:00,
2013-08-17 18:30:00,74.9,63.2,30.29,East,99,3.0,3.0,67,0.00,,,0.00,77,Wunderground v.1.15,2013-08-17 22:30:00,
2013-08-17 18:36:00,74.9,63.2,30.29,ESE,105,2.0,3.0,67,0.00,,,0.00,69,Wunderground v.1.15,2013-08-17 22:36:00,
2013-08-17 18:41:00,74.8,63.1,30.29,ENE,76,2.0,4.0,67,0.00,,,0.00,65,Wunderground v.1.15,2013-08-17 22:41:00,
2013-08-17 18:47:00,74.7,63.0,30.29,East,98,2.0,6.0,67,0.00,,,0.00,63,Wunderground v.1.15,2013-08-17 22:47:00,
2013-08-17 18:52:00,74.6,63.8,30.29,ENE,75,1.0,2.0,69,0.00,,,0.00,62,Wunderground v.1.15,2013-08-17 22:52:00,
2013-08-17 18:57:00,74.6,62.9,30.29,East,82,1.0,2.0,67,0.00,,,0.00,62,Wunderground v.1.15,2013-08-17 22:57:00,
2013-08-17 19:03:00,74.6,63.8,30.28,East,82,1.0,1.0,69,0.00,,,0.00,54,Wunderground v.1.15,2013-08-17 23:03:00,
2013-08-17 19:08:00,74.5,64.5,30.28,East,83,0.0,1.0,71,0.00,,,0.00,49,Wunderground v.1.15,2013-08-17 23:08:00,
2013-08-17 19:14:00,74.3,64.7,30.28,East,80,0.0,1.0,72,0.00,,,0.00,40,Wunderground v.1.15,2013-08-17 23:14:00,
2013-08-17 19:19:00,73.9,64.7,30.29,East,81,0.0,1.0,73,0.00,,,0.00,35,Wunderground v.1.15,2013-08-17 23:19:00,
2013-08-17 19:24:00,73.5,64.7,30.29,East,80,0.0,0.0,74,0.00,,,0.00,35,Wunderground v.1.15,2013-08-17 23:24:00,
2013-08-17 19:30:00,73.3,64.5,30.29,East,83,0.0,0.0,74,0.00,,,0.00,30,Wunderground v.1.15,2013-08-17 23:30:00,
2013-08-17 19:35:00,73.1,64.7,30.29,East,79,0.0,0.0,75,0.00,,,0.00,25,Wunderground v.1.15,2013-08-17 23:35:00,
2013-08-17 19:40:00,72.7,64.3,30.29,North,360,0.0,2.0,75,0.00,,,0.00,18,Wunderground v.1.15,2013-08-17 23:40:00,
2013-08-17 19:46:00,72.3,64.3,30.29,North,360,1.0,2.0,76,0.00,,,0.00,14,Wunderground v.1.15,2013-08-17 23:46:00,
2013-08-17 19:51:00,72.0,64.4,30.29,North,360,1.0,1.0,77,0.00,,,0.00,11,Wunderground v.1.15,2013-08-17 23:51:00,
2013-08-17 19:56:00,71.7,64.1,30.29,North,351,2.0,3.0,77,0.00,,,0.00,7,Wunderground v.1.15,2013-08-17 23:56:00,
2013-08-17 20:02:00,71.4,64.2,30.29,NNW,348,2.0,3.0,78,0.00,,,0.00,0,Wunderground v.1.15,2013-08-18 00:02:00,
2013-08-17 20:08:00,71.2,64.0,30.29,NNW,330,2.0,4.0,78,0.00,,,0.00,0,Wunderground v.1.15,2013-08-18 00:08:00,
2013-08-17 20:13:00,71.0,63.4,30.29,NNW,331,3.0,5.0,77,0.00,,,0.00,5,Wunderground v.1.15,2013-08-18 00:13:00,
2013-08-17 20:18:00,70.8,63.6,30.29,NNW,328,3.0,5.0,78,0.00,,,0.00,0,Wunderground v.1.15,2013-08-18 00:18:00,
2013-08-17 20:24:00,70.6,63.8,30.29,NNW,331,1.0,3.0,79,0.00,,,0.00,0,Wunderground v.1.15,2013-08-18 00:24:00,
2013-08-17 20:29:00,70.3,63.1,30.29,NNW,331,0.0,3.0,78,0.00,,,0.00,0,Wunderground v.1.15,2013-08-18 00:29:00,
2013-08-17 20:35:00,69.8,63.3,30.29,NW,323,1.0,3.0,80,0.00,,,0.00,0,Wunderground v.1.15,2013-08-18 00:35:00,
2013-08-17 20:40:00,69.5,63.4,30.29,NW,321,3.0,3.0,81,0.00,,,0.00,0,Wunderground v.1.15,2013-08-18 00:40:00,
2013-08-17 20:45:00,69.3,63.2,30.29,NW,321,3.0,4.0,81,0.00,,,0.00,0,Wunderground v.1.15,2013-08-18 00:45:00,
2013-08-17 20:51:00,69.1,63.4,30.29,NW,317,3.0,3.0,82,0.00,,,0.00,0,Wunderground v.1.15,2013-08-18 00:51:00,
2013-08-17 20:56:00,68.8,63.1,30.29,NW,317,3.0,4.0,82,0.00,,,0.00,0,Wunderground v.1.15,2013-08-18 00:56:00,
2013-08-17 21:02:00,68.5,63.5,30.29,NW,317,1.0,2.0,84,0.00,,,0.00,0,Wunderground v.1.15,2013-08-18 01:02:00,
2013-08-17 21:07:00,68.2,63.2,30.29,NW,316,1.0,2.0,84,0.00,,,0.00,0,Wunderground v.1.15,2013-08-18 01:07:00,
2013-08-17 21:12:00,68.0,63.0,30.30,NW,319,1.0,2.0,84,0.00,,,0.00,0,Wunderground v.1.15,2013-08-18 01:12:00,
2013-08-17 21:18:00,67.7,63.0,30.30,NW,317,1.0,2.0,85,0.00,,,0.00,0,Wunderground v.1.15,2013-08-18 01:18:00,
2013-08-17 21:23:00,67.4,63.1,30.30,NW,317,0.0,0.0,86,0.00,,,0.00,0,Wunderground v.1.15,2013-08-18 01:23:00,
2013-08-17 21:28:00,67.1,62.8,30.30,NW,316,0.0,2.0,86,0.00,,,0.00,0,Wunderground v.1.15,2013-08-18 01:28:00,
2013-08-17 21:34:00,66.9,62.6,30.30,North,360,0.0,0.0,86,0.00,,,0.00,0,Wunderground v.1.15,2013-08-18 01:34:00,
2013-08-17 21:39:00,66.7,62.7,30.30,NW,319,0.0,0.0,87,0.00,,,0.00,0,Wunderground v.1.15,2013-08-18 01:39:00,
2013-08-17 21:44:00,66.6,62.6,30.30,NW,316,0.0,0.0,87,0.00,,,0.00,0,Wunderground v.1.15,2013-08-18 01:44:00,
2013-08-17 21:50:00,66.5,62.8,30.31,NW,316,0.0,0.0,88,0.00,,,0.00,0,Wunderground v.1.15,2013-08-18 01:50:00,
2013-08-17 21:55:00,66.4,62.7,30.31,NW,316,0.0,1.0,88,0.00,,,0.00,0,Wunderground v.1.15,2013-08-18 01:55:00,
2013-08-17 22:00:00,66.2,62.5,30.31,NW,319,0.0,0.0,88,0.00,,,0.00,0,Wunderground v.1.15,2013-08-18 02:00:00,
2013-08-17 22:06:00,66.1,62.8,30.31,NW,317,0.0,0.0,89,0.00,,,0.00,0,Wunderground v.1.15,2013-08-18 02:06:00,
2013-08-17 22:11:00,66.0,62.7,30.31,NW,317,0.0,0.0,89,0.00,,,0.00,0,Wunderground v.1.15,2013-08-18 02:11:00,
2013-08-17 22:17:00,65.9,62.6,30.31,NW,317,0.0,0.0,89,0.00,,,0.00,0,Wunderground v.1.15,2013-08-18 02:17:00,
2013-08-17 22:22:00,65.8,62.5,30.31,NW,317,0.0,0.0,89,0.00,,,0.00,0,Wunderground v.1.15,2013-08-18 02:22:00,
2013-08-17 22:27:00,65.8,62.5,30.31,NW,315,0.0,0.0,89,0.00,,,0.00,0,Wunderground v.1.15,2013-08-18 02:27:00,
2013-08-17 22:33:00,65.7,62.4,30.31,NW,318,0.0,0.0,89,0.00,,,0.00,0,Wunderground v.1.15,2013-08-18 02:33:00,
2013-08-17 22:38:00,65.7,62.7,30.31,NW,315,0.0,2.0,90,0.00,,,0.00,0,Wunderground v.1.15,2013-08-18 02:38:00,
2013-08-17 22:44:00,65.6,62.6,30.31,NW,314,0.0,2.0,90,0.00,,,0.00,0,Wunderground v.1.15,2013-08-18 02:44:00,
2013-08-17 22:49:00,65.6,62.6,30.31,NW,317,0.0,2.0,90,0.00,,,0.00,0,Wunderground v.1.15,2013-08-18 02:49:00,
2013-08-17 22:54:00,65.6,62.6,30.31,NW,317,0.0,0.0,90,0.00,,,0.00,0,Wunderground v.1.15,2013-08-18 02:54:00,
2013-08-17 22:59:00,65.7,63.0,30.30,NW,317,0.0,0.0,91,0.00,,,0.00,0,Wunderground v.1.15,2013-08-18 02:59:00,
2013-08-17 23:05:00,65.7,63.0,30.30,NW,317,0.0,0.0,91,0.00,,,0.00,0,Wunderground v.1.15,2013-08-18 03:05:00,
2013-08-17 23:11:00,65.7,63.0,30.31,NW,306,0.0,0.0,91,0.00,,,0.00,0,Wunderground v.1.15,2013-08-18 03:11:00,
2013-08-17 23:16:00,65.7,63.0,30.30,NW,306,0.0,0.0,91,0.00,,,0.00,0,Wunderground v.1.15,2013-08-18 03:16:00,
2013-08-17 23:21:00,65.8,63.1,30.30,NW,305,0.0,0.0,91,0.00,,,0.00,0,Wunderground v.1.15,2013-08-18 03:21:00,
2013-08-17 23:27:00,65.8,63.1,30.31,NW,307,0.0,0.0,91,0.00,,,0.00,0,Wunderground v.1.15,2013-08-18 03:27:00,
2013-08-17 23:32:00,65.7,63.3,30.30,NW,305,0.0,0.0,92,0.00,,,0.00,0,Wunderground v.1.15,2013-08-18 03:32:00,
2013-08-17 23:37:00,65.7,63.0,30.30,NW,306,0.0,0.0,91,0.00,,,0.00,0,Wunderground v.1.15,2013-08-18 03:37:00,
2013-08-17 23:43:00,65.7,63.3,30.30,NW,306,0.0,0.0,92,0.00,,,0.00,0,Wunderground v.1.15,2013-08-18 03:43:00,
2013-08-17 23:48:00,65.7,63.3,30.30,NW,308,0.0,0.0,92,0.00,,,0.00,0,Wunderground v.1.15,2013-08-18 03:48:00,
2013-08-17 23:53:00,65.8,63.4,30.30,NW,306,0.0,0.0,92,0.00,,,0.00,0,Wunderground v.1.15,2013-08-18 03:53:00,
2013-08-17 23:59:00,65.7,63.3,30.30,NW,306,0.0,0.0,92,0.00,,,0.00,0,Wunderground v.1.15,2013-08-18 03:59:00,